User: anonymous   Login
Location: Sperry Observatory
(40.6664°N, 74.3236°W)
Time: 01:36:39
(UTC-04:00)
Language:

UOSAT-12 - Orbit

View from above orbital plane
View from above orbital plane
View from above satellite
View from above satellite

Ground track
Ground track

The orbit data is extracted from the following two-line orbital elements,

1 25693U 99021A   15116.19448566  .00000553  00000-0  89984-4 0  9998
2 25693 064.5577 018.4077 0044974 247.1538 273.4138 14.80415478864240
Epoch (UTC): 26 April 2015 04:40:03
Eccentricity: 0.0044974
inclination: 64.5577°
perigee height: 596 km
apogee height: 659 km
right ascension of ascending node: 18.4077°
argument of perigee: 247.1538°
revolutions per day: 14.80415478
mean anomaly at epoch: 273.4138°
orbit number at epoch: 86424

The dashed part of the orbit path shows where the satellite is in the earth's shadow,  

DLR